OBJECT E

Last updated on Sun Jun 12 2022 00:02:06 GMT+0000 (Coordinated Universal Time)

1 52801U 22060E 22159.51823971 -.00002422 76598-5 00000+0 0 9991 2 52801 41.4611 271.4403 0051726 128.0561 288.5231 16.09241380 531

Satellite not in orbit

OBJECT E